www.pogodaiklimat.ru

Погода и климат >> Архив погоды >> Россия >> Мурманская область >> Кандалакша


АРХИВ ПОГОДЫ в Кандалакше

Время (UTC), дата Ветер
(напр.,м/с)
 
Видим.   Явления Облачность Т
(С)
Тd
(С)
f
(%)
Тe
(С)
Тes
(С)
Комфортность P
(гПа)
Po
(гПа)
Тmin
(С)
Tmax
(С)
R
(мм)
R24
(мм)
S
(см)
06 11.09 Ю 2 10 км 10/10 300 м
[Sc]
+12.9 +11.6 92 +12 +12 1018.8 1015.7 +6.5
09 11.09 ЮВ 2 20 км 10/10 300 м
[Sc]
+14.3 +12.5 89 +14 +14 1018.4 1015.3
12 11.09 Ю 3 20 км 9/9 600 м
[Sc]
+15.4 +12.2 81 +15 +15 1016.8 1013.8
15 11.09 Ю 3 10 км 9/6 300 м
[Sc Cs]
+14.0 +12.0 88 +13 +13 1014.9 1011.9
18 11.09 Ю 2 4000 м в посл. час ливневой дождь 10/10 300 м
[Cb cap]
+12.5 +12.0 97 +11 +11 1013.0 1009.9 +16.2 0.0
21 11.09 З 1 2000 м дымка {ливн. осадки} 10/8 300 м
[Cb cap Ac und]
+12.8 +12.3 97 +13 +13 1010.6 1007.6
00 12.09 Ю 3 10 км {ливн. осадки} 9/9 600 м
[Sc]
+13.8 +12.9 94 +13 +13 1008.4 1005.4
03 12.09 ЮВ 2 10 км {ливн. осадки} 10/8 600 м
[Cb cap Ac As]
+13.4 +12.0 91 +13 +13 1007.1 1004.1 +11.9 0.1
06 12.09 Ю 2 10 км {ливн. осадки} 10/9 600 м
[Cb cap Ac und]
+13.7 +11.4 86 +13 +13 1005.8 1002.8 +12.4 0.1
09 12.09 Ю 3 10 км {ливн. осадки} 10/10 300 м
[Cb cap]
+13.1 +12.2 94 +12 +12 1004.4 1001.4
12 12.09 Ю 2 10 км в посл. час ливневой дождь 9/9 300 м
[Cb cap]
+15.4 +13.4 88 +15 +16 1003.3 1000.3
15 12.09 Ю 1-2
{11}
20 км {ливн. осадки} 10/8 300 м
[Cb cap Ac As Cs]
+13.5 +12.7 95 +14 +14 1003.0 1000.0 1
18 12.09 Ю 2 10 км слаб. ливневой дождь 10/8 300 м
[Cb cap Ac As]
+13.3 +11.5 89 +13 +13 1000.9 997.9 +16.1 1
21 12.09 ЮВ 3 10 км в посл. час ливневой дождь 10/10 300 м
[Cb cap]
+12.6 +12.3 98 +11 +11 998.1 995.1
00 13.09 Ю 1 10 км в посл. час ливневой дождь 10/8 300 м
[Cb cap Ac und]
+12.2 +11.9 98 +12 +12 997.8 994.8
03 13.09 ЮЗ 1 10 км {ливн. осадки} 9/4 600 м
[Sc Ac lent Cc]
+10.7 +10.4 98 +10 +10 997.8 994.8 +10.5 2
06 13.09 штиль 0 20 км {ливн. осадки} 9/6 300 м
[Cb cap Ac lent]
+11.6 +11.1 97 +11 +11 997.9 994.9 +10.5 2
09 13.09 З 2 20 км 9/5 600 м
[Cb cap Ac lent Cs]
+13.8 +9.9 77 +13 +14 998.2 995.2
12 13.09 Ю 2 20 км 8/3 600 м
[Cb cap As trans Cs]
+15.6 +8.8 64 +16 +17 998.1 995.2
15 13.09 В 1 10 км слаб. ливневой дождь 10/5 600 м
[Cb cap Ac As]
+10.7 +9.9 95 +10 +10 998.8 995.8 2
18 13.09 С 1 10 км {ливн. осадки} 8/8 300 м
[Cb cap Ac trans]
+8.6 +8.3 98 +8 +8 999.1 996.0 +16.3 3
21 13.09 СВ 1 10 км 9/9 300 м
[Cb cap]
+7.8 +7.7 99 +7 +7 999.2 996.1
00 14.09 С 2 10 км слаб. ливневой дождь 10/10 300 м
[Cb cap]
+8.0 +7.9 99 +6 +6 999.6 996.5
03 14.09 С 3 10 км слаб. дождь 10/10 300 м
[Frnb Ns]
+7.5 +7.0 97 +4 +4 1000.7 997.6 +7.2 2
06 14.09 С 3 10 км слаб. ливневой дождь 10/10 300 м
[Cb cap]
+7.3 +6.7 96 +4 +4 1002.1 999.0 +7.1 0.8
09 14.09 С 2 10 км слаб. дождь 10/10 300 м
[Frnb Ns]
+7.7 +6.5 92 +6 +6 1003.9 1000.8
12 14.09 С 3 10 км слаб. дождь 10/9 300 м
[Frnb As op]
+7.8 +6.6 92 +5 +5 1005.6 1002.5
15 14.09 С 2 10 км {дождь} 9/3 600 м
[Sc Ac As Cs]
+8.2 +5.9 85 +6 +6 1006.8 1003.7 3
18 14.09 С 2 10 км {дождь} 8/1 600 м
[Sc Ac lent]
+6.2 +3.8 85 +4 +4 1007.0 1003.9 +8.5 3
21 14.09 С 1 10 км 5/0
[Ac lent Cs]
+2.4 +1.8 96 +1 +1 1006.7 1003.5
00 15.09 С 1 10 км 5/0
[Cs]
+0.7 +0.6 99 -1 -1 1006.4 1003.2
03 15.09 С 1 10 км 8/1 300 м
[St As trans Cs]
+0.6 +0.6 100 -2 -2 1005.0 1001.8 -0.3
06 15.09 СВ 1 10 км 4/1 600 м
[Sc Cs]
+4.7 +4.1 96 +3 +4 1002.6 999.5 -0.3
09 15.09 С 3 20 км 8/5 600 м
[Cu Sc Ac trans Cc]
+8.4 +3.9 73 +6 +7 1000.5 997.4
12 15.09 СВ 3 20 км 9/9 600 м
[Cb cap]
+8.7 +3.6 70 +6 +7 998.6 995.5
15 15.09 С 3 20 км 9/8 600 м
[Sc Ac trans Cs]
+8.2 +3.3 71 +6 +6 996.3 993.2
18 15.09 С 2 10 км 10/10 600 м
[Cb cap]
+6.2 +3.2 81 +4 +4 994.3 991.2 +10.7
21 15.09 С 2 10 км в посл. час дождь 10/8 300 м
[Frnb As op]
+5.3 +3.8 90 +3 +3 992.6 989.5
00 16.09 С 1 10 км в посл. час дождь 10/10 300 м
[St]
+5.3 +4.4 94 +4 +4 991.4 988.3
03 16.09 С 1 20 км в посл. час ливневой дождь 10/10 300 м
[Cb cap]
+5.9 +4.9 93 +5 +5 990.8 987.7 +5.3 0.4
06 16.09 С 3 20 км {ливн. осадки} 10/10 300 м
[Cb cap]
+8.4 +6.2 86 +6 +6 990.5 987.5 +5.3 0.5
09 16.09 С 2 20 км слаб. ливневой дождь 9/8 300 м
[Cb cap Ac As]
+8.8 +7.0 88 +7 +7 991.7 988.7
12 16.09 С 3 20 км {ливн. осадки} 9/8 300 м
[Cb cap Ac As]
+9.8 +5.6 75 +8 +8 992.8 989.8
15 16.09 С 3 20 км 9/8 300 м
[Cb cap Ac As]
+9.5 +5.9 78 +7 +7 993.5 990.5 0.2
18 16.09 С 2 10 км слаб. ливневой дождь 10/10 300 м
[Cb cap]
+8.4 +6.0 85 +7 +7 994.8 991.7 +12.0 0.1
21 16.09 С 2 10 км {ливн. осадки} 8/4 600 м
[Sc Ac As Ci sp]
+6.7 +5.2 90 +4 +4 995.5 992.5
00 17.09 СЗ 1 10 км {ливн. осадки} 8/4 1000 м
[Sc Ac As Cc]
+5.1 +4.4 95 +4 +4 996.4 993.3
03 17.09 С 2 10 км в посл. час ливневой дождь 9/9 300 м
[Cb cap]
+5.9 +4.1 88 +3 +3 997.3 994.2 +4.5 0.1
06 17.09 СВ 3 10 км {ливн. осадки} 9/4 600 м
[Sc Ac lent Ci]
+6.2 +2.8 79 +3 +3 998.5 995.4 +4.5 0.1
09 17.09 С 3 10 км осадки на расстоянии {ливн. осадки} 9/8 600 м
[Cb cap Cs]
+8.0 +1.0 61 +6 +6 999.8 996.7
12 17.09 С 3 20 км осадки на расстоянии {ливн. осадки} 9/8 600 м
[Cb cap Cc]
+8.6 0.0 55 +6 +7 1000.6 997.5
15 17.09 С 2 20 км осадки на расстоянии 9/3 600 м
[Cb cap Ac lent Cc]
+6.8 +0.6 65 +5 +5 1001.7 998.6 0.0
18 17.09 С 1 10 км 8/1 600 м
[Sc Ac trans Cs]
+1.4 -0.2 89 -1 -1 1002.9 999.7 +10.0 0.0
21 17.09 С 2 10 км 1/0
[Ac lent]
-0.4 -0.8 97 -4 -4 1004.0 1000.8
00 18.09 С 2 10 км 9/0
[Ac As Cs]
+1.2 0.0 92 -2 -2 1004.6 1001.4
03 18.09 СВ 1 10 км 9/1 600 м
[Sc Ac As Cs]
+0.6 -0.2 94 -1 -1 1004.9 1001.7 -1.2

 

Местоположение метеостанции Кандалакша (Мурманская область, Россия): широта 67.15 долгота 32.35 высота над уровнем моря 25 м.

В архиве по умолчанию представлена погода в Кандалакше за последнюю неделю. Архивные данные за месяц целиком и за предыдущие месяцы, начиная с января 2011 года, Вы можете получить, выбрав интересующий диапазон дат из раскрывающегося списка и нажав кнопку "Ввод!".


*Определитесь, кто Вы:
робот инопланетянин человек

Внимание! Время в таблицах - всемирное. Для получения местного времени необходимо прибавить поправку, которая равна 3 ч.

Смотрите также архив погоды в соседних городах и на ближайших метеорологических станциях:

Погода в Порту Кандалакша (Мурманская область, Россия) (4 км)
Погода в Порту Витино (Мурманская область, Россия) (8 км)
Погода в Зашейке (Мурманская область, Россия) (29 км)
Погода в Ковде (Мурманская область, Россия) (55 км)
Погода в Апатитах (Мурманская область, Россия) (62 км)
Погода в Зареченске (Мурманская область, Россия) (66 км)
Погода в Кировске (Мурманская область, Россия) (77 км)
Погода в Алакуртти (Мурманская область, Россия) (89 км)
Погода в Мончегорске (Мурманская область, Россия) (90 км)
Погода в Ковдоре (Мурманская область, Россия) (94 км)

Пояснения к столбцам:

Ветер - указаны скорость ветра в м/с - средняя за 10 мин, порывы в срок и между сроками (в фигурных скобках) и направление, откуда дует ветер: С - северный, СВ - северо-восточный, В - восточный, ЮВ - юго-восточный, Ю - южный, ЮЗ - юго-западный, З - западный, СЗ - северо-западный.
Видимость - горизонтальная дальность видимости в метрах или километрах. При видимости от 1 до 10 км при отсутствии осадков обычно наблюдается дымка, при ухудшении видимости до 1 км и менее - туман. В сухую погоду видимость может ухудшаться дымом, пылью или мглою.
Явления - указаны атмосферные явления, наблюдавшиеся в срок или в последний час перед сроком; фигурными скобками обозначены явления, наблюдавшиеся между сроками (за 1-3 часа до срока); квадратными скобками обозначены град или гололедные отложения с указанием их диаметра в мм.
Облачность - указаны через наклонную черту общая и нижняя облачность в баллах и высота нижней границы облаков в метрах; квадратными скобками обозначены формы облаков: Ci - перистые, Cs - перисто-слоистые, Cc - перисто-кучевые, Ac - высококучевые, As - высокослоистые, Sc - слоисто-кучевые, Ns - слоисто-дождевые, Cu - кучевые, Cb - кучево-дождевые. Подробнее классификацию облаков см. в Атласе облаков (PDF).
T - Температура воздуха - температура, измеренная на высоте 2 м над землей.
Td - Температура точки росы - температура, при понижении до которой содержащийся в воздухе водяной пар достигнет насыщения.
f - Относительная влажность воздуха - влажноcть воздуха, измеренная на высоте 2 м над землей.
Te - Эффективная температура - температура, которую ощущает одетый по сезону человек в тени. Характеристика душности погоды. При расчете учитывается влияние влажности воздуха и скорости ветра на теплоощущения человека.
Tes - Эффективная температура на солнце - температура, которую ощущает человек, с поправкой на солнечный нагрев. Характеристика знойности погоды. Зависит от высоты солнца над горизонтом, облачности и скорости ветра. Ночью, в пасмурную погоду, а также при ветре 12 м/с и более поправка равна нулю.
P - Атмосферное давление - приведенное к уровню моря атмосферное давление.
Po - Атмосферное давление - измеренное на уровне метеостанции атмосферное давление.
Tmin - Минимальная температура - минимум температуры воздуха на высоте 2 м над землей.
Tmax - Максимальная температура - максимум температуры воздуха на высоте 2 м над землей.
R - Количество осадков - Количество выпавших осадков за период времени, мм. При наведении курсора мыши на число - период времени, за который выпало указанное количество осадков.
R24 - Количество осадков - Количество выпавших осадков за 24 часа, мм.
S - Снежный покров - Высота снежного покрова, см. При наведении курсора мыши на число - состояние снежного покрова и степень покрытия местности в баллах.